Regional Weather Roundup
Issued by NWS State College, PA

Home | Current Version | Previous Version | Text Only | Print | Product List | Glossary On
Versions: 1 2 3 4 5 6 7 8 9 10 11 12 13 14 15 16 17 18 19 20 21 22 23 24 25 26 27 28 29 30 31 32 33 34 35 36 37 38 39 40 41 42 43 44 45 46 47 48 49 50
666
ASUS41 KCTP 210003
RWRCTP

REGIONAL WEATHER ROUNDUP
NATIONAL WEATHER SERVICE STATE COLLEGE PA
800 PM EDT SUN MAY 20 2018

Note: "fair" indicates few or no clouds below 12,000 feet with no
significant weather and/or obstructions to visibility.

* = STATION THAT DOES NOT REPORT PRECIPITATION /E.G. RAIN...SNOW...ETC/
    THUNDER OR FOG.

PAZ002>004-007>009-013>016-020>023-029>032-210100-
WESTERN PENNSYLVANIA

CITY           SKY/WX    TMP DP  RH WIND       PRES   REMARKS
ERIE           FAIR      57  50  77 W5        30.15F
MEADVILLE      FAIR      58  54  86 N5        30.15F
FRANKLIN*      FAIR      62  54  74 N3        30.14F
NEW CASTLE     FAIR      67  57  70 N5        30.13F
BEAVER COUNTY  NOT AVBL
BUTLER*        FAIR      68  56  65 CALM      30.12S
PITTSBURGH INT FAIR      70  57  63 N7        30.10F
PITTSBURGH     FAIR      69  60  73 N3        30.10S
INDIANA*       CLEAR     70  59  68 N5        30.15S
LATROBE        CLEAR     72  61  68 N12       30.12R
WASHINGTON CO* FAIR      70  61  73 N6        30.14R
$$

PAZ004>006-010>012-017>019-024>028-033>037-041-042-045-046-049>053-210100-
CENTRAL PENNSYLVANIA

CITY           SKY/WX    TMP DP  RH WIND       PRES   REMARKS
BRADFORD       FAIR      61  52  72 W6        30.14F
DUBOIS         FAIR      66  54  65 NW6       30.11F
CLEARFIELD     FAIR      69  54  58 W6        30.11S
JOHNSTOWN      FAIR      67  58  72 NW9       30.13S
ALTOONA        FAIR      73  58  59 NW6       30.11R
STATE COLLEGE  PTCLDY    72  57  60 NW3       30.10R
WILLIAMSPORT   FAIR      70  55  59 N6        30.06R
SELINSGROVE    FAIR      68  59  73 N8        30.05R
FT INDIANTOWN  FAIR      75  62  64 N8        30.03R
CAPITAL CITY   FAIR      78  59  51 NW6       30.02R
HARRISBURG     FAIR      74  60  61 NW9       30.01R
YORK           FAIR      76  62  62 VRB3      30.03R
$$

PAZ038>040-043-044-047-048-054-055-060>062-067>071-210100-
EASTERN PENNSYLVANIA

CITY           SKY/WX    TMP DP  RH WIND       PRES   REMARKS
SCRANTON       CLOUDY    66  57  72 N8        30.08R
MOUNT POCONO   FAIR      61  55  81 NW13G23   30.07R
ALLENTOWN      FAIR      72  60  66 N8        30.03R
QUAKERTOWN*    CLEAR     72  63  73 CALM      30.03R
READING        FAIR      75  64  68 N8        30.01R
LANCASTER      FAIR      76  64  66 NW7       30.02R
COATESVILLE    FAIR      75  63  64 CALM      30.04S
POTTSTOWN      FAIR      74  63  68 NW3       30.03R
BLUE BELL      FAIR      73  63  68 CALM      30.03R
DOYLESTOWN     FAIR      72  62  71 N3        30.01R
WILLOW GROVE   NOT AVBL
NORTH PHILA    FAIR      77  63  61 NW7       30.01R
PHILADELPHIA   MOCLDY    78  61  55 NW9       30.00R
$$




USA.gov is the U.S. government's official web portal to all federal, state and local government web resources and services.